Location: Unspecified
(0.0000°N, 0.0000°E)
Time: 23:10:35
(UTC+00:00)

S-56A Canister/Altair - Pass Details

Date: 07 October 2020
Orbit: 633 x 2499 km, 38.9° (Epoch: 28 October)

Event Time Altitude Azimuth Distance (km) Brightness Sun altitude
Rises 12:18:43 0° 295° (WNW) 5,375 11.9 80.3°
Reaches altitude 10° 12:26:56 10° 327° (NNW) 4,825 11.7 78.6°
Maximum altitude 12:30:04 11° 341° (NNW) 4,866 11.7 77.9°
Drops below altitude 10° 12:33:18 10° 354° (N) 5,045 11.8 77.2°
Sets 12:43:01 0° 26° (NNE) 6,164 12.0 75.0°
